Location: Góry Miechowskie
(50.3599°N, 20.1803°E)
Time: 08:34:15
(UTC+00:00)

A-11 Canister half - Pass Details

Date: 13 September 2024
Orbit: 1524 x 1683 km, 47.3° (Epoch: 12 October)

Event Time Altitude Azimuth Distance (km) Brightness Sun altitude
Rises 17:35:15 0° 281° (WNW) 4,807 14.3 -6.9°
Reaches altitude 10° 17:38:22 10° 279° (W) 3,841 12.8 -7.4°
Maximum altitude 17:47:58 61° 202° (SSW) 1,840 9.5 -8.8°
Drops below altitude 10° 17:57:48 10° 126° (SE) 3,933 10.5 -10.3°
Enters shadow 17:57:50 10° 126° (SE) 3,942 10.5 -10.4°
